[[{"header":{"parameterUnit":"m.s-1","parameterCategory":1,"la1":30.2991,"la2":30.254,"lo1":-89.0895,"lo2":-89.0444,"dy":0.0017,"dx":0.0017,"nx":28,"ny":28,"refTime":"2023-03-22T21:00:00:Z","depth":0,"parameterNumber":2,"parameterNumberName":"U-component_of_WINDS"},"data":[0,0,0,0,0,0,0,0,0,0,0,0,0,0,0,0,0,0,0,0,0,0,0,0,0,0,0,0,0,0,0,0,0,0,0,0,0,0,0,0,0,0,0,0,0,0,0,0,0,0,0,0,0,0,0,0,0,0,-1.9476,-1.9476,0,-1.9501,-1.9501,-1.9502,-1.9473,-1.9471,-1.947,-1.9469,-1.9496,-1.9497,-1.9499,0,0,0,0,0,0,0,0,0,0,0,0,0,-1.9402,-1.9404,-1.9475,-1.9476,-1.9476,-1.9501,-1.9501,-1.9502,-1.9473,-1.9471,-1.947,-1.9469,-1.9495,-1.9497,-1.9499,0,0,0,0,0,0,0,0,0,0,0,0,0,-1.9432,-1.9404,-1.9475,-1.9465,-1.9464,-1.9501,-1.9501,-1.9502,-1.9473,-1.9471,-1.947,-1.9468,-1.9494,-1.9497,-1.9499,-1.9548,0,0,-1.9507,-1.9508,0,0,0,0,0,0,0,0,-1.943,-1.9434,-1.9466,-1.9466,-1.9465,-1.9482,-1.9485,-1.9517,-1.9473,-1.947,-1.9469,-1.9467,-1.9492,-1.9495,-1.9503,-1.9549,-1.9551,-1.9508,-1.9509,-1.951,-1.9511,0,0,0,0,0,0,0,-1.9428,-1.9433,-1.9486,-1.9466,-1.9466,-1.9459,-1.9461,-1.9491,-1.949,-1.947,-1.9468,-1.9471,-1.9492,-1.9501,-1.9504,-1.9551,-1.9507,-1.951,-1.9511,-1.9512,-1.9638,-1.964,0,0,0,0,0,0,-1.9427,-1.9432,-1.9485,-1.9486,-1.9443,-1.9461,-1.9464,-1.9478,-1.9489,-1.949,-1.9473,-1.947,-1.9497,-1.9501,-1.9505,-1.9562,-1.951,-1.9513,-1.9514,-1.9636,-1.9638,-1.964,0,0,0,0,0,0,-1.9426,-1.9432,-1.9484,-1.9458,-1.9464,-1.9464,-1.948,-1.9479,-1.9489,-1.9492,-1.9491,-1.9482,-1.9496,-1.9501,-1.9538,-1.9563,-1.9514,-1.9516,-1.9634,-1.9637,-1.9639,-1.9678,0,0,0,0,0,0,-1.9424,-1.9432,-1.945,-1.9459,-1.9466,-1.9516,-1.9482,-1.9481,-1.9493,-1.949,-1.95,-1.9501,-1.9495,-1.9534,-1.954,-1.9565,-1.9518,-1.9632,-1.9635,-1.9639,-1.9674,-1.9681,-1.9687,0,0,0,0,0,-1.9421,-1.946,-1.9451,-1.9458,-1.9489,-1.9518,-1.9522,-1.9514,-1.9495,-1.9514,-1.9516,-1.95,-1.9559,-1.9538,-1.9545,-1.9571,-1.963,-1.9634,-1.9638,-1.9671,-1.968,-1.9687,0,0,0,0,0,0,-1.9454,-1.9461,-1.9451,-1.9494,-1.9506,-1.9513,-1.9536,-1.9524,-1.9541,-1.9537,-1.9528,-1.9531,-1.9569,-1.9574,-1.955,-1.9619,-1.9591,-1.9597,-1.9614,-1.9622,-1.9629,-1.9627,-1.952,0,0,0,0,0,-1.9466,-1.9489,-1.9494,-1.9531,-1.9537,-1.9536,-1.9548,-1.9542,-1.9553,-1.9558,-1.9562,-1.9574,-1.9595,-1.9609,-1.9629,-1.9675,-1.9677,-1.9696,-1.9703,-1.9709,-1.9713,-1.9738,-1.9746,-1.9654,-1.9654,-1.9653,0,0,-1.9492,-1.9498,-1.9513,-1.9538,-1.9546,-1.957,-1.954,-1.9566,-1.9584,-1.9562,-1.9596,-1.96,-1.9613,-1.9654,-1.9673,-1.9659,-1.9739,-1.9714,-1.9718,-1.972,-1.9743,-1.9751,-1.9759,-1.9656,-1.9656,-1.9655,0,0,-1.955,-1.9558,-1.9589,-1.9598,-1.9611,-1.9609,-1.9617,-1.9626,-1.9628,-1.9662,-1.9646,-1.9667,-1.9704,-1.9713,-1.9723,-1.9786,-1.9772,-1.9792,-1.9827,-1.9851,-1.9858,-1.9864,-1.9886,-1.9894,-1.9797,-1.9797,-1.9797,0,-1.958,-1.9615,-1.9607,-1.9634,-1.9646,-1.9627,-1.9659,-1.9668,-1.9687,-1.9695,-1.968,-1.9725,-1.9732,-1.9776,-1.9791,-1.98,-1.9808,-1.9791,-1.9858,-1.9864,-1.987,-1.9891,-1.9899,-1.98,-1.9799,-1.9799,-1.9799,0,-1.9651,-1.9676,-1.97,-1.9718,-1.9732,-1.9762,-1.9758,-1.9774,-1.9767,-1.9767,-1.9802,-1.9811,-1.9831,-1.9841,-1.9835,-1.9884,-1.9875,-1.9859,-1.9831,-1.9881,-1.99,-1.9908,-1.9803,-1.9802,-1.9801,-1.9801,0,0,-1.973,-1.9743,-1.9752,-1.976,-1.9773,-1.9792,-1.9821,-1.9841,-1.9855,-1.9868,-1.9892,-1.9924,-1.9909,-1.992,-1.9914,-1.9936,-1.9984,-1.9917,-1.9917,-1.9928,-2.0038,-2.005,-2.0059,-1.9976,-1.9977,-1.9978,-2.0037,0,-1.9788,-1.9838,-1.9832,-1.9879,-1.9902,-1.9885,-1.991,-1.9921,-1.9922,-1.9942,-1.9943,-1.9966,-1.9945,-1.9951,-1.9972,-1.9974,-2.0006,-1.997,-1.9997,-1.9998,-1.9994,-2.0069,-2.0081,-2.0136,-2.0045,-2.0046,-2.0047,0,-1.9862,-1.9878,-1.9928,-1.9937,-1.9946,-1.9969,-1.9987,-2.0006,-2.0018,-2.0018,-2.003,-2.0021,-2.005,-2.0023,-2.0063,-2.0038,-2.0049,-2.0052,-2.0054,-2.0056,-2.0025,-2.0072,-2.0154,-2.0162,-2.0059,-2.0058,-2.0057,0,-1.9914,-1.9948,-1.9982,-1.999,-2.0002,-2.0018,-2.0024,-2.0034,-2.0047,-2.0063,-2.0071,-2.009,-2.0101,-2.0116,-2.0112,-2.0093,-2.0153,-2.0125,-2.0153,-2.0153,-2.0166,-2.0165,-2.025,-2.0175,-2.0174,-2.0174,-2.0174,0,-1.9978,-2.001,-2.0005,-2.0026,-2.0061,-2.0054,-2.0088,-2.0092,-2.0101,-2.0123,-2.011,-2.013,-2.0124,-2.0145,-2.0142,-2.0175,-2.018,-2.0181,-2.0179,-2.0181,-2.0181,-2.0188,-2.0184,-2.0176,-2.0176,-2.0176,-2.0175,0,-2.0042,-2.004,-2.0076,-2.0085,-2.0088,-2.0113,-2.012,-2.014,-2.014,-2.0168,-2.0174,-2.0175,-2.0198,-2.0196,-2.0222,-2.022,-2.0261,-2.0256,-2.0257,-2.0256,-2.0283,-2.028,-2.0375,-2.0387,-2.0304,-2.0305,-2.0306,0,-2.0083,-2.0106,-2.0117,-2.0131,-2.0137,-2.0159,-2.0172,-2.0166,-2.018,-2.0196,-2.0214,-2.0236,-2.0253,-2.0291,-2.0294,-2.0314,-2.0309,-2.034,-2.0311,-2.0313,-2.0308,-2.0307,-2.0309,-2.0346,-2.0347,-2.0347,-2.0348,0,-2.0156,-2.0154,-2.0173,-2.0192,-2.0207,-2.0222,-2.0235,-2.0247,-2.0242,-2.0259,-2.0282,-2.0296,-2.0322,-2.0344,-2.0363,-2.0369,-2.0358,-2.0357,-2.0365,-2.0366,-2.0366,-2.0366,-2.0272,-2.0355,-2.0354,-2.0354,-2.0353,-2.0353,-2.0209,-2.0229,-2.024,-2.0261,-2.027,-2.0283,-2.0302,-2.0305,-2.0324,-2.0345,-2.0341,-2.0368,-2.0379,-2.0403,-2.0412,-2.0432,-2.0421,-2.0432,-2.0434,-2.0437,-2.044,-2.0363,-2.0436,-2.0435,-2.0435,-2.0435,-2.0435,0,-2.0281,-2.0287,-2.0307,-2.0325,-2.0342,-2.033,-2.0344,-2.0359,-2.0383,-2.0394,-2.0412,-2.0439,-2.046,-2.0465,-2.0485,-2.0501,-2.0496,-2.0506,-2.0505,-2.0506,-2.0449,-2.044,-2.051,-2.051,-2.051,-2.051,-2.051,-2.051,-2.032,-2.0353,-2.0352,-2.039,-2.0396,-2.0422,-2.0431,-2.0442,-2.0451,-2.0482,-2.05,-2.0503,-2.0512,-2.0533,-2.0552,-2.0553,-2.0561,-2.0573,-2.0572,-2.0518,-2.051,-2.0503,-2.0495,-2.0575,-2.0575,-2.0627,-2.0628,-2.0628]},{"header":{"parameterUnit":"m.s-1","parameterCategory":1,"la1":30.2991,"la2":30.254,"lo1":-89.0895,"lo2":-89.0444,"dy":0.0017,"dx":0.0017,"nx":28,"ny":28,"refTime":"2023-03-22T21:00:00:Z","depth":0,"parameterNumber":3,"parameterNumberName":"V-component_of_WINDS"},"data":[0,0,0,0,0,0,0,0,0,0,0,0,0,0,0,0,0,0,0,0,0,0,0,0,0,0,0,0,0,0,0,0,0,0,0,0,0,0,0,0,0,0,0,0,0,0,0,0,0,0,0,0,0,0,0,0,0,0,4.4694,4.4695,0,4.4737,4.4738,4.4738,4.4705,4.4703,4.4702,4.4701,4.4741,4.4743,4.4745,0,0,0,0,0,0,0,0,0,0,0,0,0,4.4582,4.4584,4.4694,4.4695,4.4695,4.4737,4.4738,4.4738,4.4705,4.4703,4.4702,4.47,4.474,4.4743,4.4746,0,0,0,0,0,0,0,0,0,0,0,0,0,4.4628,4.4585,4.4694,4.4684,4.4684,4.4737,4.4738,4.4738,4.4705,4.4703,4.4701,4.4699,4.4739,4.4742,4.4746,4.4811,0,0,4.4757,4.4759,0,0,0,0,0,0,0,0,4.4626,4.4632,4.4685,4.4685,4.4684,4.4714,4.4713,4.4763,4.4706,4.4697,4.4701,4.4698,4.4733,4.4737,4.475,4.4813,4.4814,4.4757,4.4759,4.4761,4.4762,0,0,0,0,0,0,0,4.4623,4.463,4.4711,4.4686,4.4685,4.4677,4.4681,4.4722,4.4726,4.4698,4.4695,4.4701,4.4733,4.4746,4.475,4.4815,4.4757,4.476,4.4763,4.4764,4.4936,4.4938,0,0,0,0,0,0,4.4621,4.4628,4.471,4.4712,4.4649,4.468,4.4685,4.4706,4.4726,4.4727,4.4703,4.4699,4.4741,4.4746,4.4752,4.4831,4.4761,4.4764,4.4766,4.4933,4.4936,4.4939,0,0,0,0,0,0,4.4618,4.4628,4.4708,4.467,4.4679,4.4685,4.4709,4.4708,4.4722,4.473,4.473,4.4716,4.474,4.4747,4.4797,4.4832,4.4766,4.4769,4.4931,4.4934,4.4938,4.4989,0,0,0,0,0,0,4.4615,4.4628,4.4653,4.4671,4.4681,4.4754,4.4711,4.4711,4.4729,4.4725,4.4743,4.4743,4.4739,4.4792,4.4801,4.4836,4.4772,4.4928,4.4932,4.4937,4.4984,4.4994,4.5002,0,0,0,0,0,4.4611,4.4664,4.4654,4.4664,4.4713,4.4756,4.4762,4.4756,4.4732,4.4757,4.4762,4.4743,4.4826,4.4798,4.4807,4.4843,4.4925,4.4931,4.4936,4.498,4.4992,4.5002,0,0,0,0,0,0,4.4648,4.4666,4.4655,4.4715,4.4735,4.475,4.4782,4.4769,4.4794,4.4789,4.478,4.4784,4.4838,4.4845,4.4813,4.4908,4.4872,4.4879,4.4902,4.4913,4.4922,4.492,4.4775,0,0,0,0,0,4.4664,4.4698,4.4711,4.4763,4.4773,4.4776,4.4794,4.4789,4.4808,4.4815,4.4824,4.4842,4.4873,4.4893,4.4921,4.4985,4.4989,4.5014,4.5023,4.5031,4.5038,4.5074,4.5086,4.4957,4.4957,4.4957,0,0,4.4695,4.4709,4.4731,4.4771,4.4785,4.482,4.4783,4.4821,4.4848,4.482,4.487,4.4877,4.4897,4.4955,4.4981,4.4963,4.5074,4.5038,4.5043,4.5046,4.5081,4.5093,4.5104,4.4961,4.496,4.4959,0,0,4.4771,4.4785,4.4831,4.4847,4.4869,4.4871,4.4882,4.49,4.4905,4.4955,4.4936,4.4966,4.5018,4.5034,4.5049,4.5134,4.5118,4.5143,4.519,4.5226,4.5236,4.5245,4.5278,4.5289,4.515,4.515,4.515,0,4.4807,4.4861,4.4855,4.4897,4.4915,4.4894,4.4941,4.4956,4.4986,4.4999,4.4979,4.5046,4.5057,4.512,4.5141,4.5153,4.5166,4.5142,4.5235,4.5244,4.5253,4.5283,4.5295,4.5153,4.5153,4.5152,4.5152,0,4.4906,4.4943,4.4977,4.501,4.5032,4.5076,4.5077,4.5099,4.5092,4.5096,4.5148,4.5162,4.5194,4.5208,4.52,4.527,4.5258,4.5237,4.52,4.5268,4.5297,4.5309,4.5158,4.5156,4.5156,4.5155,0,0,4.5006,4.5037,4.5049,4.5065,4.5089,4.5118,4.5161,4.5194,4.5215,4.5236,4.5273,4.5319,4.53,4.5317,4.5311,4.5342,4.5411,4.5317,4.5317,4.5335,4.5492,4.5509,4.5523,4.54,4.5402,4.5404,4.5491,0,4.5085,4.5162,4.5159,4.523,4.5266,4.5247,4.5285,4.5304,4.5309,4.534,4.5344,4.5378,4.535,4.536,4.539,4.5396,4.5442,4.539,4.5435,4.5436,4.5432,4.5537,4.5556,4.5637,4.5502,4.5503,4.5505,0,4.5187,4.5216,4.5292,4.5314,4.5328,4.5362,4.5394,4.5423,4.5444,4.5446,4.5466,4.5456,4.5499,4.5461,4.5522,4.5486,4.5504,4.551,4.5513,4.5518,4.5476,4.5547,4.5662,4.5676,4.5522,4.5521,4.5519,0,4.5256,4.5312,4.5366,4.5379,4.5405,4.543,4.5442,4.5461,4.5482,4.5509,4.5523,4.5554,4.5571,4.5595,4.5593,4.5565,4.5656,4.5616,4.5659,4.5659,4.568,4.5679,4.5801,4.5688,4.5688,4.5688,4.5688,0,4.5346,4.5393,4.5398,4.5431,4.5484,4.548,4.5532,4.5541,4.5559,4.5593,4.5578,4.561,4.5605,4.5637,4.5636,4.5688,4.5695,4.5698,4.5697,4.5701,4.5701,4.5713,4.5708,4.5691,4.569,4.569,4.5689,0,4.5432,4.5436,4.5494,4.5515,4.5521,4.5559,4.5577,4.5608,4.5613,4.5657,4.5667,4.5673,4.5711,4.5711,4.5753,4.5753,4.5817,4.5809,4.5811,4.581,4.5853,4.585,4.599,4.6009,4.5881,4.5882,4.5883,0,4.549,4.5526,4.5552,4.5575,4.5589,4.5626,4.5648,4.5645,4.5669,4.5697,4.5726,4.5762,4.5792,4.5853,4.5861,4.5894,4.5887,4.5934,4.5892,4.5895,4.5891,4.589,4.5894,4.5943,4.5944,4.5945,4.5946,0,4.5593,4.5594,4.5627,4.5662,4.569,4.5716,4.5741,4.576,4.576,4.5788,4.5827,4.585,4.5895,4.5932,4.5964,4.5975,4.5962,4.5959,4.5971,4.5976,4.5977,4.5979,4.5835,4.5956,4.5955,4.5955,4.5954,4.5954,4.5668,4.5701,4.5725,4.5763,4.5782,4.5806,4.5838,4.5848,4.5881,4.5919,4.5914,4.5959,4.5981,4.6023,4.6037,4.6072,4.6056,4.6072,4.6077,4.6082,4.6088,4.597,4.6077,4.6077,4.6077,4.6076,4.6076,0,4.5773,4.5788,4.5823,4.586,4.589,4.5876,4.5903,4.5929,4.5969,4.5991,4.6021,4.6068,4.6104,4.6116,4.6151,4.6177,4.6172,4.6186,4.6186,4.6189,4.6099,4.6086,4.619,4.619,4.619,4.619,4.619,4.619,4.5831,4.5887,4.5891,4.5956,4.5971,4.6016,4.6033,4.6056,4.6074,4.6127,4.6158,4.6166,4.6185,4.6222,4.6255,4.6257,4.6272,4.629,4.629,4.6206,4.6195,4.6184,4.6172,4.6292,4.6293,4.6377,4.6378,4.6378]}]]